Time,TemperatureF,DewpointF,PressureIn,WindDirection,WindDirectionDegrees,WindSpeedMPH,WindSpeedGustMPH,Humidity,HourlyPrecipIn,Conditions,Clouds,dailyrainin,SoftwareType,DateUTC
2013-04-17 00:02:00,61.0,55.0,30.13,NE,46,0.0,3.0,81,0.00,,,0.00,,2013-04-16 22:02:00,
2013-04-17 00:12:00,61.0,55.0,30.13,NE,46,0.0,3.0,81,0.00,,,0.00,,2013-04-16 22:12:00,
2013-04-17 00:22:00,61.0,55.0,30.13,NE,46,0.0,3.0,81,0.00,,,0.00,,2013-04-16 22:22:00,
2013-04-17 00:32:00,62.0,52.0,30.14,ENE,66,1.0,3.0,71,0.00,,,0.00,,2013-04-16 22:32:00,
2013-04-17 00:42:00,62.0,52.0,30.14,ENE,66,1.0,3.0,71,0.00,,,0.00,,2013-04-16 22:42:00,
2013-04-17 00:52:00,62.0,52.0,30.14,ENE,66,1.0,3.0,71,0.00,,,0.00,,2013-04-16 22:52:00,
2013-04-17 01:02:00,62.0,52.0,30.14,ENE,66,1.0,3.0,71,0.00,,,0.00,,2013-04-16 23:02:00,
2013-04-17 01:22:00,62.0,47.0,30.14,East,84,0.0,1.0,59,0.00,,,0.00,,2013-04-16 23:22:00,
2013-04-17 01:32:00,62.0,47.0,30.14,East,84,0.0,1.0,59,0.00,,,0.00,,2013-04-16 23:32:00,
2013-04-17 01:42:00,62.0,47.0,30.14,East,84,0.0,1.0,59,0.00,,,0.00,,2013-04-16 23:42:00,
2013-04-17 01:51:00,62.0,47.0,30.14,East,84,0.0,1.0,57,0.00,,,0.00,,2013-04-16 23:51:00,
2013-04-17 02:02:00,61.0,45.0,30.14,East,84,2.0,2.0,56,0.00,,,0.00,,2013-04-17 00:02:00,
2013-04-17 02:12:00,61.0,45.0,30.14,East,84,2.0,2.0,56,0.00,,,0.00,,2013-04-17 00:12:00,
2013-04-17 02:22:00,61.0,42.0,30.14,East,84,1.0,4.0,50,0.00,,,0.00,,2013-04-17 00:22:00,
2013-04-17 02:32:00,63.0,41.0,30.14,East,84,0.0,2.0,44,0.00,,,0.00,,2013-04-17 00:32:00,
2013-04-17 02:42:00,63.0,41.0,30.14,East,84,0.0,2.0,44,0.00,,,0.00,,2013-04-17 00:42:00,
2013-04-17 02:52:00,62.0,40.0,30.14,East,84,0.0,4.0,44,0.00,,,0.00,,2013-04-17 00:52:00,
2013-04-17 03:02:00,63.0,38.0,30.13,East,84,0.0,2.0,39,0.00,,,0.00,,2013-04-17 01:02:00,
2013-04-17 03:11:00,63.0,38.0,30.13,East,84,0.0,2.0,39,0.00,,,0.00,,2013-04-17 01:11:00,
2013-04-17 03:21:00,63.0,38.0,30.13,East,84,0.0,2.0,39,0.00,,,0.00,,2013-04-17 01:21:00,
2013-04-17 03:32:00,64.0,35.0,30.13,East,83,3.0,6.0,34,0.00,,,0.00,,2013-04-17 01:32:00,
2013-04-17 03:42:00,64.0,35.0,30.13,East,83,3.0,6.0,34,0.00,,,0.00,,2013-04-17 01:42:00,
2013-04-17 03:52:00,63.0,34.0,30.13,East,83,1.0,2.0,34,0.00,,,0.00,,2013-04-17 01:52:00,
2013-04-17 04:02:00,62.0,39.0,30.13,East,83,1.0,3.0,43,0.00,,,0.00,,2013-04-17 02:02:00,
2013-04-17 04:11:00,62.0,39.0,30.13,East,83,1.0,3.0,43,0.00,,,0.00,,2013-04-17 02:11:00,
2013-04-17 04:21:00,62.0,39.0,30.13,East,83,1.0,3.0,43,0.00,,,0.00,,2013-04-17 02:21:00,
2013-04-17 04:32:00,62.0,39.0,30.13,East,83,1.0,3.0,43,0.00,,,0.00,,2013-04-17 02:32:00,
2013-04-17 04:42:00,62.0,39.0,30.13,East,83,1.0,3.0,43,0.00,,,0.00,,2013-04-17 02:42:00,
2013-04-17 04:52:00,61.0,38.0,30.13,East,83,3.0,3.0,42,0.00,,,0.00,,2013-04-17 02:52:00,
2013-04-17 05:02:00,59.0,36.0,30.13,East,83,3.0,4.0,42,0.00,,,0.00,,2013-04-17 03:02:00,
2013-04-17 05:12:00,59.0,36.0,30.13,East,83,3.0,4.0,42,0.00,,,0.00,,2013-04-17 03:12:00,
2013-04-17 05:21:00,60.0,36.0,30.13,East,83,1.0,3.0,40,0.00,,,0.00,,2013-04-17 03:21:00,
2013-04-17 05:32:00,60.0,34.0,30.13,East,83,3.0,4.0,37,0.00,,,0.00,,2013-04-17 03:32:00,
2013-04-17 05:42:00,60.0,34.0,30.13,East,83,3.0,4.0,37,0.00,,,0.00,,2013-04-17 03:42:00,
2013-04-17 05:53:00,61.0,34.0,30.13,East,83,3.0,4.0,36,0.00,,,0.00,,2013-04-17 03:53:00,
2013-04-17 06:02:00,61.0,34.0,30.13,East,83,2.0,4.0,36,0.00,,,0.00,,2013-04-17 04:02:00,
2013-04-17 06:12:00,61.0,34.0,30.13,East,83,2.0,4.0,36,0.00,,,0.00,,2013-04-17 04:12:00,
2013-04-17 06:22:00,61.0,33.0,30.14,East,83,2.0,3.0,35,0.00,,,0.00,,2013-04-17 04:22:00,
2013-04-17 06:32:00,61.0,34.0,30.14,East,83,2.0,4.0,36,0.00,,,0.00,,2013-04-17 04:32:00,
2013-04-17 06:42:00,61.0,34.0,30.14,East,83,2.0,4.0,36,0.00,,,0.00,,2013-04-17 04:42:00,
2013-04-17 06:52:00,61.0,34.0,30.14,East,83,2.0,4.0,36,0.00,,,0.00,,2013-04-17 04:52:00,
2013-04-17 07:02:00,60.0,34.0,30.14,East,83,0.0,0.0,38,0.00,,,0.00,,2013-04-17 05:02:00,
2013-04-17 07:12:00,60.0,34.0,30.14,East,83,0.0,0.0,38,0.00,,,0.00,,2013-04-17 05:12:00,
2013-04-17 07:22:00,60.0,34.0,30.14,East,83,0.0,0.0,38,0.00,,,0.00,,2013-04-17 05:22:00,
2013-04-17 07:32:00,60.0,34.0,30.14,East,83,0.0,0.0,38,0.00,,,0.00,,2013-04-17 05:32:00,
2013-04-17 07:42:00,60.0,34.0,30.14,East,83,0.0,0.0,38,0.00,,,0.00,,2013-04-17 05:42:00,
2013-04-17 07:52:00,63.0,36.0,30.15,East,83,0.0,0.0,37,0.00,,,0.00,,2013-04-17 05:52:00,
2013-04-17 08:02:00,63.0,36.0,30.15,East,83,0.0,1.0,36,0.00,,,0.00,,2013-04-17 06:02:00,
2013-04-17 08:12:00,63.0,36.0,30.15,East,83,0.0,1.0,36,0.00,,,0.00,,2013-04-17 06:12:00,
2013-04-17 08:22:00,63.0,36.0,30.15,East,83,0.0,1.0,36,0.00,,,0.00,,2013-04-17 06:22:00,
2013-04-17 08:32:00,65.0,39.0,30.15,East,83,0.0,0.0,38,0.00,,,0.00,,2013-04-17 06:32:00,
2013-04-17 08:42:00,65.0,39.0,30.15,East,83,0.0,0.0,38,0.00,,,0.00,,2013-04-17 06:42:00,
2013-04-17 08:52:00,65.0,41.0,30.16,East,83,0.0,0.0,42,0.00,,,0.00,,2013-04-17 06:52:00,
2013-04-17 09:02:00,66.0,42.0,30.16,East,83,0.0,0.0,42,0.00,,,0.00,,2013-04-17 07:02:00,
2013-04-17 09:12:00,66.0,42.0,30.16,East,83,0.0,0.0,42,0.00,,,0.00,,2013-04-17 07:12:00,
2013-04-17 09:21:00,65.0,44.0,30.16,East,83,2.0,3.0,46,0.00,,,0.00,,2013-04-17 07:21:00,
2013-04-17 09:32:00,66.0,39.0,30.16,East,83,1.0,2.0,37,0.00,,,0.00,,2013-04-17 07:32:00,
2013-04-17 09:42:00,66.0,39.0,30.16,East,83,1.0,2.0,37,0.00,,,0.00,,2013-04-17 07:42:00,
2013-04-17 09:52:00,66.0,38.0,30.16,East,83,2.0,2.0,36,0.00,,,0.00,,2013-04-17 07:52:00,
2013-04-17 10:02:00,67.0,38.0,30.16,SE,128,3.0,4.0,34,0.00,,,0.00,,2013-04-17 08:02:00,
2013-04-17 10:11:00,67.0,38.0,30.16,SE,128,3.0,4.0,34,0.00,,,0.00,,2013-04-17 08:11:00,
2013-04-17 10:21:00,67.0,38.0,30.16,SE,128,3.0,4.0,34,0.00,,,0.00,,2013-04-17 08:21:00,
2013-04-17 10:32:00,67.0,38.0,30.16,SE,128,3.0,4.0,34,0.00,,,0.00,,2013-04-17 08:32:00,
2013-04-17 11:02:00,66.0,39.0,30.18,SW,234,3.0,5.0,37,0.00,,,0.00,,2013-04-17 09:02:00,
2013-04-17 11:12:00,66.0,39.0,30.18,SW,234,3.0,5.0,37,0.00,,,0.00,,2013-04-17 09:12:00,
2013-04-17 11:22:00,66.0,39.0,30.18,SW,234,3.0,5.0,37,0.00,,,0.00,,2013-04-17 09:22:00,
2013-04-17 11:32:00,66.0,45.0,30.18,WSW,242,2.0,4.0,46,0.00,,,0.00,,2013-04-17 09:32:00,
2013-04-17 11:42:00,66.0,45.0,30.18,WSW,242,2.0,4.0,46,0.00,,,0.00,,2013-04-17 09:42:00,
2013-04-17 11:52:00,66.0,45.0,30.18,WSW,242,2.0,4.0,46,0.00,,,0.00,,2013-04-17 09:52:00,
2013-04-17 12:02:00,67.0,48.0,30.18,WSW,242,4.0,6.0,50,0.00,,,0.00,,2013-04-17 10:02:00,
2013-04-17 12:12:00,67.0,48.0,30.18,WSW,242,4.0,6.0,50,0.00,,,0.00,,2013-04-17 10:12:00,
2013-04-17 12:23:00,67.0,45.0,30.17,West,264,5.0,8.0,45,0.00,,,0.00,,2013-04-17 10:23:00,
2013-04-17 12:32:00,68.0,43.0,30.17,West,273,10.0,10.0,41,0.00,,,0.00,,2013-04-17 10:32:00,
2013-04-17 12:42:00,68.0,43.0,30.17,West,273,10.0,10.0,41,0.00,,,0.00,,2013-04-17 10:42:00,
2013-04-17 12:52:00,69.0,43.0,30.17,WSW,243,7.0,10.0,39,0.00,,,0.00,,2013-04-17 10:52:00,
2013-04-17 13:02:00,69.0,43.0,30.17,WSW,243,7.0,10.0,39,0.00,,,0.00,,2013-04-17 11:02:00,
2013-04-17 13:11:00,69.0,43.0,30.17,WSW,243,7.0,10.0,39,0.00,,,0.00,,2013-04-17 11:11:00,
2013-04-17 13:21:00,69.0,43.0,30.17,WSW,243,7.0,10.0,39,0.00,,,0.00,,2013-04-17 11:21:00,
2013-04-17 13:32:00,69.0,41.0,30.17,West,262,8.0,10.0,36,0.00,,,0.00,,2013-04-17 11:32:00,
2013-04-17 13:42:00,69.0,41.0,30.17,West,262,8.0,10.0,36,0.00,,,0.00,,2013-04-17 11:42:00,
2013-04-17 13:52:00,69.0,41.0,30.17,West,262,8.0,10.0,36,0.00,,,0.00,,2013-04-17 11:52:00,
2013-04-17 14:02:00,69.0,44.0,30.16,WSW,248,7.0,10.0,41,0.00,,,0.00,,2013-04-17 12:02:00,
2013-04-17 14:12:00,69.0,44.0,30.16,WSW,248,7.0,10.0,41,0.00,,,0.00,,2013-04-17 12:12:00,
2013-04-17 14:22:00,68.0,43.0,30.16,WSW,246,7.0,10.0,41,0.00,,,0.00,,2013-04-17 12:22:00,
2013-04-17 14:32:00,70.0,40.0,30.15,NW,313,5.0,11.0,34,0.00,,,0.00,,2013-04-17 12:32:00,
2013-04-17 14:42:00,70.0,40.0,30.15,NW,313,5.0,11.0,34,0.00,,,0.00,,2013-04-17 12:42:00,
2013-04-17 14:51:00,69.0,36.0,30.15,West,265,8.0,14.0,30,0.00,,,0.00,,2013-04-17 12:51:00,
2013-04-17 15:02:00,69.0,39.0,30.15,NW,309,4.0,13.0,34,0.00,,,0.00,,2013-04-17 13:02:00,
2013-04-17 15:11:00,69.0,39.0,30.15,NW,309,4.0,13.0,34,0.00,,,0.00,,2013-04-17 13:11:00,
2013-04-17 15:22:00,69.0,38.0,30.14,SW,233,4.0,15.0,32,0.00,,,0.00,,2013-04-17 13:22:00,
2013-04-17 15:32:00,68.0,43.0,30.14,West,278,6.0,11.0,40,0.00,,,0.00,,2013-04-17 13:32:00,
2013-04-17 15:41:00,68.0,43.0,30.14,West,278,6.0,11.0,40,0.00,,,0.00,,2013-04-17 13:41:00,
2013-04-17 15:52:00,69.0,40.0,30.14,West,272,7.0,13.0,35,0.00,,,0.00,,2013-04-17 13:52:00,
2013-04-17 16:02:00,68.0,45.0,30.14,WNW,292,6.0,10.0,44,0.00,,,0.00,,2013-04-17 14:02:00,
2013-04-17 16:11:00,68.0,45.0,30.14,WNW,292,6.0,10.0,44,0.00,,,0.00,,2013-04-17 14:11:00,
2013-04-17 16:21:00,68.0,44.0,30.14,WNW,296,8.0,10.0,42,0.00,,,0.00,,2013-04-17 14:21:00,
2013-04-17 16:32:00,68.0,46.0,30.13,NW,308,3.0,8.0,46,0.00,,,0.00,,2013-04-17 14:32:00,
2013-04-17 16:41:00,68.0,46.0,30.13,NW,308,3.0,8.0,46,0.00,,,0.00,,2013-04-17 14:41:00,
2013-04-17 16:52:00,68.0,46.0,30.13,NW,308,3.0,8.0,46,0.00,,,0.00,,2013-04-17 14:52:00,
2013-04-17 17:02:00,68.0,46.0,30.13,NW,308,3.0,8.0,46,0.00,,,0.00,,2013-04-17 15:02:00,
2013-04-17 17:11:00,68.0,46.0,30.13,NW,308,3.0,8.0,46,0.00,,,0.00,,2013-04-17 15:11:00,
2013-04-17 17:53:00,69.0,44.0,30.13,NNW,333,3.0,9.0,41,0.00,,,0.00,,2013-04-17 15:53:00,
2013-04-17 18:03:00,68.0,45.0,30.13,NW,323,3.0,8.0,43,0.00,,,0.00,,2013-04-17 16:03:00,
2013-04-17 18:12:00,68.0,45.0,30.13,NW,323,3.0,8.0,43,0.00,,,0.00,,2013-04-17 16:12:00,
2013-04-17 18:22:00,68.0,45.0,30.13,NW,323,3.0,8.0,43,0.00,,,0.00,,2013-04-17 16:22:00,
2013-04-17 18:32:00,68.0,43.0,30.12,NNW,344,8.0,8.0,40,0.00,,,0.00,,2013-04-17 16:32:00,
2013-04-17 18:42:00,68.0,43.0,30.12,NNW,344,8.0,8.0,40,0.00,,,0.00,,2013-04-17 16:42:00,
2013-04-17 18:52:00,68.0,39.0,30.12,NW,319,3.0,11.0,35,0.00,,,0.00,,2013-04-17 16:52:00,
2013-04-17 19:02:00,67.0,41.0,30.12,North,349,4.0,7.0,39,0.00,,,0.00,,2013-04-17 17:02:00,
2013-04-17 19:11:00,67.0,41.0,30.12,North,349,4.0,7.0,39,0.00,,,0.00,,2013-04-17 17:11:00,
2013-04-17 19:22:00,67.0,38.0,30.12,North,355,3.0,6.0,35,0.00,,,0.00,,2013-04-17 17:22:00,
2013-04-17 19:32:00,66.0,43.0,30.13,North,355,6.0,9.0,43,0.00,,,0.00,,2013-04-17 17:32:00,
2013-04-17 19:42:00,66.0,43.0,30.13,North,355,6.0,9.0,43,0.00,,,0.00,,2013-04-17 17:42:00,
2013-04-17 19:51:00,65.0,44.0,30.13,NNE,15,3.0,7.0,47,0.00,,,0.00,,2013-04-17 17:51:00,
2013-04-17 20:02:00,64.0,45.0,30.13,North,5,3.0,6.0,50,0.00,,,0.00,,2013-04-17 18:02:00,
2013-04-17 20:11:00,64.0,45.0,30.13,North,5,3.0,6.0,50,0.00,,,0.00,,2013-04-17 18:11:00,
2013-04-17 20:22:00,64.0,45.0,30.13,North,5,3.0,6.0,50,0.00,,,0.00,,2013-04-17 18:22:00,
2013-04-17 20:32:00,64.0,45.0,30.13,North,5,3.0,6.0,50,0.00,,,0.00,,2013-04-17 18:32:00,
2013-04-17 20:52:00,64.0,49.0,30.14,NW,307,1.0,5.0,58,0.00,,,0.00,,2013-04-17 18:52:00,
2013-04-17 21:02:00,64.0,49.0,30.14,NW,307,1.0,5.0,58,0.00,,,0.00,,2013-04-17 19:02:00,
2013-04-17 21:12:00,64.0,49.0,30.14,NW,307,1.0,5.0,58,0.00,,,0.00,,2013-04-17 19:12:00,
2013-04-17 21:21:00,63.0,47.0,30.14,NNW,346,3.0,4.0,55,0.00,,,0.00,,2013-04-17 19:21:00,
2013-04-17 21:32:00,63.0,47.0,30.14,NNW,346,3.0,4.0,55,0.00,,,0.00,,2013-04-17 19:32:00,
2013-04-17 21:42:00,62.0,47.0,30.14,NE,49,5.0,7.0,58,0.00,,,0.00,,2013-04-17 19:42:00,
2013-04-17 21:52:00,62.0,47.0,30.14,NE,49,5.0,7.0,58,0.00,,,0.00,,2013-04-17 19:52:00,
2013-04-17 22:02:00,63.0,45.0,30.14,ENE,58,2.0,2.0,51,0.00,,,0.00,,2013-04-17 20:02:00,
2013-04-17 22:12:00,63.0,45.0,30.14,ENE,58,2.0,2.0,51,0.00,,,0.00,,2013-04-17 20:12:00,
2013-04-17 22:21:00,63.0,45.0,30.14,ENE,58,2.0,2.0,51,0.00,,,0.00,,2013-04-17 20:21:00,
2013-04-17 22:32:00,63.0,45.0,30.14,ENE,58,2.0,2.0,51,0.00,,,0.00,,2013-04-17 20:32:00,
2013-04-17 23:02:00,63.0,45.0,30.14,ENE,57,2.0,3.0,52,0.00,,,0.00,,2013-04-17 21:02:00,
2013-04-17 23:12:00,63.0,45.0,30.14,ENE,57,2.0,3.0,52,0.00,,,0.00,,2013-04-17 21:12:00,
2013-04-17 23:22:00,63.0,45.0,30.14,ENE,57,2.0,3.0,52,0.00,,,0.00,,2013-04-17 21:22:00,
2013-04-17 23:32:00,62.0,47.0,30.15,ENE,57,3.0,4.0,57,0.00,,,0.00,,2013-04-17 21:32:00,
2013-04-17 23:42:00,61.0,47.0,30.14,ENE,57,3.0,3.0,60,0.00,,,0.00,,2013-04-17 21:42:00,
2013-04-17 23:53:00,61.0,47.0,30.14,ENE,57,3.0,3.0,60,0.00,,,0.00,,2013-04-17 21:53:00,